Waarnemingen

Advertentie
Mijn weer
Chassiron, Frankrijk (7314): temperatuur & dauwpunt: 13.07.2018 21:00:00 - 19.07.2018 21:00:00 (CEST)Chassiron, Frankrijk (7314): windsnelheid & windstoten: 13.07.2018 21:00:00 - 19.07.2018 21:00:00 (CEST)Chassiron, Frankrijk (7314): windrichting: 13.07.2018 21:00:00 - 19.07.2018 21:00:00 (CEST)Chassiron, Frankrijk (7314): luchtdruk: 13.07.2018 21:00:00 - 19.07.2018 21:00:00 (CEST)Chassiron, Frankrijk (7314): zicht: 13.07.2018 21:00:00 - 19.07.2018 21:00:00 (CEST)Chassiron, Frankrijk (7314): neerslag: 13.07.2018 21:00:00 - 19.07.2018 21:00:00 (CEST)
Datum & Tijd tt [°C] td [°C] ff [km/u] ff [kn] fx [km/u] fx [kn] dd ppp [hPa] vv [km] rr [mm]
19.07.2018 21:00:00 18,0 16,7 14 8 26 14 NNO 1016,1 - 1,2
19.07.2018 20:00:00 18,0 16,5 22 12 39 21 N 1015,7 - 1,0
19.07.2018 19:00:00 17,7 16,2 23 12 49 26 NNW 1016,9 - 2,0
19.07.2018 18:00:00 19,1 16,3 21 12 40 22 NNW 1016,4 - 0,0
19.07.2018 17:00:00 19,2 17,0 28 15 38 21 NNW 1016,8 14 0,0
19.07.2018 16:00:00 20,2 16,6 22 12 37 20 NW 1016,6 - 0,0
19.07.2018 15:00:00 19,9 17,1 29 16 44 24 NNW 1016,4 - 0,0
19.07.2018 14:00:00 19,6 17,0 25 13 34 18 NW 1017,2 14 0,0
19.07.2018 13:00:00 18,9 16,1 20 11 26 14 NNW 1016,7 - 0,0
19.07.2018 12:00:00 19,1 16,3 14 8 23 12 NW 1017,0 - 0,0
19.07.2018 11:00:00 19,3 16,5 9 5 18 10 WNW 1017,1 12 0,0
19.07.2018 10:00:00 18,9 16,3 9 5 15 8 NNW 1016,7 - 0,0
19.07.2018 09:00:00 18,7 16,3 9 5 15 8 WNW 1016,8 - 0,0
19.07.2018 08:00:00 18,2 16,0 6 3 9 5 N 1016,6 16 0,0
19.07.2018 07:00:00 17,7 15,7 7 4 11 6 NNW 1016,5 - 0,0
19.07.2018 06:00:00 17,8 15,4 6 4 14 8 N 1016,4 - 0,0
19.07.2018 05:00:00 18,1 15,4 11 6 16 9 NNW 1016,6 15 0,0
19.07.2018 04:00:00 18,4 15,1 9 5 21 11 N 1016,9 - 0,0
19.07.2018 03:00:00 18,7 15,0 15 8 22 12 N 1017,2 - 0,0
19.07.2018 02:00:00 18,6 15,1 18 10 25 14 NNW 1017,3 - 0,0
19.07.2018 01:00:00 18,8 15,1 18 10 31 17 NNW 1017,3 - 0,0
19.07.2018 00:00:00 18,8 15,3 26 14 35 19 NW 1017,7 - 0,0
18.07.2018 23:00:00 18,8 15,5 23 12 35 19 NW 1017,6 15 0,0
18.07.2018 22:00:00 19,1 15,2 24 13 35 19 NW 1016,7 - 0,0
18.07.2018 21:00:00 19,5 15,2 26 14 37 20 NW 1016,5 - 0,0
18.07.2018 20:00:00 20,0 15,0 24 13 37 20 NW 1016,4 17 0,0
18.07.2018 19:00:00 20,1 15,1 23 13 36 20 NW 1015,9 - 0,0
18.07.2018 18:00:00 20,5 15,5 22 12 37 20 NW 1016,4 - 0,0
18.07.2018 17:00:00 19,7 15,1 28 15 36 20 NNW 1016,1 17 0,0
18.07.2018 16:00:00 20,5 15,7 16 8 29 15 WNW 1017,7 - 0,0
18.07.2018 15:00:00 20,1 15,1 22 12 31 17 NW 1016,8 - 0,0
18.07.2018 14:00:00 20,4 15,2 14 8 22 12 NW 1017,0 17 0,0
18.07.2018 13:00:00 20,7 14,6 7 4 11 6 NNW 1017,3 - 0,0
18.07.2018 12:00:00 20,4 14,7 6 3 11 6 NNW 1017,9 - 0,0
18.07.2018 11:00:00 20,3 15,1 9 5 17 9 NNO 1017,8 - 0,0
18.07.2018 10:00:00 19,3 14,3 13 7 16 9 NNO 1018,0 - 0,0
18.07.2018 09:00:00 18,2 13,9 13 7 21 12 N 1018,2 - 0,0
18.07.2018 08:00:00 17,8 14,7 12 6 18 10 NNO 1018,1 14 0,0
18.07.2018 07:00:00 17,6 14,3 13 7 20 11 N 1018,0 - 0,0
18.07.2018 06:00:00 17,5 14,0 12 7 17 9 NNO 1018,3 - 0,0
18.07.2018 05:00:00 17,6 14,1 13 7 24 13 N 1018,3 14 0,0
18.07.2018 04:00:00 17,8 14,1 18 10 26 14 N 1018,4 - 0,0
18.07.2018 03:00:00 17,8 14,3 14 7 22 12 N 1018,9 - 0,0
18.07.2018 02:00:00 18,0 14,3 16 9 21 11 N 1019,3 - 0,0
18.07.2018 01:00:00 18,1 15,2 13 7 17 9 NNW 1019,5 - 0,0
18.07.2018 00:00:00 18,4 15,5 11 6 23 12 NNW 1019,5 - 0,0
17.07.2018 23:00:00 19,1 15,6 15 8 22 12 NW 1019,7 - 0,0
17.07.2018 22:00:00 19,6 14,4 10 6 18 10 WNW 1019,4 - 0,0
17.07.2018 21:00:00 20,3 14,4 13 7 19 10 WNW 1019,4 - 0,0
17.07.2018 20:00:00 21,1 15,9 10 6 16 8 W 1019,4 17 0,0
17.07.2018 19:00:00 21,1 16,1 13 7 18 10 WZW 1019,5 - 0,0
17.07.2018 18:00:00 22,2 16,2 11 6 16 9 ZW 1019,7 - 0,0
17.07.2018 17:00:00 22,1 15,9 11 6 18 10 ZZW 1020,1 17 0,0
17.07.2018 16:00:00 21,9 16,2 13 7 20 11 ZZW 1020,4 - 0,0
17.07.2018 15:00:00 21,8 16,1 12 6 22 12 ZZW 1020,7 - 0,0
17.07.2018 14:00:00 21,8 16,3 16 8 22 12 ZZW 1020,9 17 0,0
17.07.2018 13:00:00 21,5 16,0 11 6 16 9 Z 1021,0 - 0,0
17.07.2018 12:00:00 20,9 15,4 6 3 8 4 ZZW 1020,9 - 0,0
17.07.2018 11:00:00 20,5 15,5 4 2 7 4 ZZW 1020,7 - 0,0
17.07.2018 10:00:00 20,0 16,2 5 3 7 4 Z 1020,5 - 0,0
17.07.2018 09:00:00 19,5 16,5 3 2 5 3 ZZW 1020,3 - 0,0
17.07.2018 08:00:00 18,9 16,5 3 2 6 3 N 1020,1 6 0,0
17.07.2018 07:00:00 18,5 16,1 4 2 22 12 N 1019,8 - 0,0
17.07.2018 06:00:00 18,6 15,8 12 7 21 11 W 1019,6 - 0,0
17.07.2018 05:00:00 18,7 15,8 18 10 26 14 W 1019,5 14 0,0
17.07.2018 04:00:00 18,4 15,5 20 11 32 17 W 1019,5 - 0,0
17.07.2018 03:00:00 18,7 15,4 23 12 34 18 W 1019,6 - 0,0
17.07.2018 02:00:00 18,8 16,6 18 10 27 15 W 1020,0 14 0,0
17.07.2018 01:00:00 19,1 16,7 16 9 24 13 W 1019,9 - 0,0
17.07.2018 00:00:00 19,3 16,9 14 8 21 11 W 1019,7 - 0,0
16.07.2018 23:00:00 19,4 17,0 17 9 24 13 W 1019,5 - 0,0
16.07.2018 22:00:00 19,7 17,1 16 8 27 15 W 1018,9 - 0,0
16.07.2018 21:00:00 20,5 17,3 16 9 28 15 W 1018,6 - 0,0
16.07.2018 20:00:00 20,8 17,0 18 10 35 19 W 1018,2 14 0,0
16.07.2018 19:00:00 20,9 17,1 24 13 40 22 WNW 1017,5 - 0,0
16.07.2018 18:00:00 21,1 17,3 26 14 40 22 WNW 1017,3 - 0,0
16.07.2018 17:00:00 21,7 17,9 24 13 40 22 WNW 1017,0 14 0,0
16.07.2018 16:00:00 21,7 18,1 21 11 36 19 W 1016,9 - 0,0
16.07.2018 15:00:00 21,7 17,5 22 12 35 19 WNW 1016,3 - 0,0
16.07.2018 14:00:00 21,7 17,7 21 12 35 19 WNW 1016,2 12 0,0
16.07.2018 13:00:00 21,2 17,4 20 11 29 16 WNW 1016,2 - 0,0
16.07.2018 12:00:00 20,6 17,6 13 7 22 12 WNW 1016,0 - 0,0
16.07.2018 11:00:00 20,2 17,0 14 8 27 15 WNW 1015,5 14 0,0
16.07.2018 10:00:00 20,1 17,3 18 10 27 14 NW 1014,7 - 0,0
16.07.2018 09:00:00 20,2 18,0 13 7 21 11 NNW 1014,5 - 0,0
16.07.2018 08:00:00 20,2 18,1 18 10 26 14 WNW 1014,6 14 0,0
16.07.2018 07:00:00 19,9 17,5 20 11 29 15 WNW 1014,2 - 0,0
16.07.2018 06:00:00 20,0 17,2 14 8 24 13 W 1014,0 - 0,0
16.07.2018 05:00:00 19,8 16,6 15 8 22 12 W 1014,3 14 0,0
16.07.2018 04:00:00 20,1 17,1 8 4 23 12 ZZW 1014,9 - 0,0
16.07.2018 03:00:00 21,6 17,0 12 6 35 19 ZZW 1015,8 - 0,0
16.07.2018 02:00:00 21,0 16,4 15 8 39 21 WZW 1015,9 - 0,0
16.07.2018 01:00:00 19,8 16,6 10 6 24 13 WNW 1015,4 - 0,0
16.07.2018 00:00:00 20,1 16,5 17 9 24 13 NNW 1014,7 - 0,0
15.07.2018 23:00:00 20,4 16,4 19 10 31 17 NNW 1014,4 - 0,0
15.07.2018 22:00:00 21,4 16,4 25 14 34 18 NNW 1013,8 - 0,0
15.07.2018 21:00:00 21,7 16,9 25 13 33 18 NW 1013,7 - 0,0
15.07.2018 20:00:00 22,4 16,7 24 13 31 17 NW 1013,8 14 0,0
15.07.2018 19:00:00 23,2 17,6 20 11 31 17 NW 1013,9 - 0,0
15.07.2018 18:00:00 23,2 18,5 21 11 31 17 NW 1013,9 - 0,0
15.07.2018 17:00:00 23,3 18,2 19 10 27 15 NW 1014,2 14 0,0
15.07.2018 16:00:00 23,0 18,3 18 10 26 14 NW 1014,5 - 0,0
15.07.2018 15:00:00 23,9 17,4 13 7 21 11 WNW 1014,7 - 0,0
15.07.2018 14:00:00 24,8 18,3 8 4 13 7 WNW 1015,1 11 0,0
15.07.2018 13:00:00 24,5 18,4 7 4 11 6 NNW 1015,4 - 0,0
15.07.2018 12:00:00 23,4 18,1 6 3 11 6 N 1015,7 - 0,0
15.07.2018 11:00:00 23,5 18,4 8 4 15 8 NO 1015,6 15 0,0
15.07.2018 10:00:00 21,5 17,9 11 6 17 9 NO 1015,7 - 0,0
15.07.2018 09:00:00 20,4 17,0 11 6 17 9 NO 1015,6 - 0,0
15.07.2018 08:00:00 19,3 16,9 10 5 14 8 NO 1015,4 - 0,0
15.07.2018 07:00:00 18,9 16,7 9 5 13 7 NNO 1015,2 - 0,0
15.07.2018 06:00:00 18,9 16,5 10 5 12 7 NNO 1015,2 - 0,0
15.07.2018 05:00:00 19,0 16,2 9 5 14 8 NNO 1015,3 15 0,0
15.07.2018 04:00:00 19,3 16,1 10 6 17 9 NNO 1015,5 - 0,0
15.07.2018 03:00:00 19,0 16,0 13 7 18 10 N 1015,7 - 0,0
15.07.2018 02:00:00 19,4 16,4 13 7 16 9 N 1015,9 15 0,0
15.07.2018 01:00:00 19,9 17,3 10 6 15 8 N 1016,3 - 0,0
15.07.2018 00:00:00 19,8 17,2 9 5 19 10 NNW 1016,3 - 0,0
14.07.2018 23:00:00 20,0 16,6 16 8 26 14 NNW 1016,3 - 0,0
14.07.2018 22:00:00 20,5 16,5 19 11 26 14 NNW 1015,9 - 0,0
14.07.2018 21:00:00 21,0 16,4 21 11 32 17 NNW 1016,0 - 0,0
14.07.2018 20:00:00 22,2 16,7 26 14 31 17 NNW 1015,9 14 0,0
14.07.2018 19:00:00 22,1 17,7 19 10 27 15 NW 1016,3 - 0,0
14.07.2018 18:00:00 22,5 18,1 19 11 28 15 NW 1016,6 - 0,0
14.07.2018 17:00:00 22,7 18,9 21 11 27 15 NW 1016,9 14 0,0
14.07.2018 16:00:00 23,2 18,5 16 9 25 13 WNW 1017,4 - 0,0
14.07.2018 15:00:00 23,2 18,1 15 8 22 12 WNW 1017,7 - 0,0
14.07.2018 14:00:00 23,1 17,6 9 5 16 9 WNW 1018,0 18 0,0
14.07.2018 13:00:00 24,4 17,1 7 4 11 6 WNW 1018,2 - 0,0
14.07.2018 12:00:00 24,8 16,2 5 3 15 8 ONO 1018,3 - 0,0
14.07.2018 11:00:00 23,2 17,0 10 6 18 10 NO 1018,4 - 0,0
14.07.2018 10:00:00 21,4 16,6 11 6 18 10 ONO 1018,5 - 0,0
14.07.2018 09:00:00 20,4 16,2 10 6 17 9 ONO 1018,3 - 0,0
14.07.2018 08:00:00 18,7 15,4 10 6 17 9 NO 1018,2 - 0,0
14.07.2018 07:00:00 18,4 15,5 10 5 17 9 ONO 1018,0 - 0,0
14.07.2018 06:00:00 18,6 16,2 10 5 16 9 NO 1018,2 - 0,0
14.07.2018 05:00:00 18,8 16,0 8 4 21 11 NO 1018,4 - 0,0
14.07.2018 04:00:00 18,6 15,7 14 8 21 11 NO 1018,5 - 0,0
14.07.2018 03:00:00 18,7 15,9 12 6 16 9 NNO 1018,8 - 0,0
14.07.2018 02:00:00 18,7 15,8 10 5 15 8 N 1019,0 - 0,0
14.07.2018 01:00:00 19,3 16,5 11 6 16 9 N 1019,2 - 0,0
14.07.2018 00:00:00 19,8 17,4 10 5 16 9 N 1019,2 - 0,0
13.07.2018 23:00:00 19,8 17,2 12 6 29 15 NNW 1019,1 - 0,0
13.07.2018 22:00:00 20,3 16,9 24 13 33 18 NNW 1018,6 - 0,0
13.07.2018 21:00:00 20,6 16,6 23 12 32 17 NNW 1018,3 - 0,0

tt = temperatuur
td = dauwpunt
ff = windsnelheid
fx = windstoten
dd = windrichting
ppp = luchtdruk
vv = zicht
rr = neerslag

Weerstations in de omgeving